[[{"header":{"parameterUnit":"m.s-1","parameterCategory":1,"la1":30.2991,"la2":30.254,"lo1":-89.0895,"lo2":-89.0444,"dy":0.0017,"dx":0.0017,"nx":28,"ny":28,"refTime":"2024-12-11T03:00:00:Z","depth":0,"parameterNumber":2,"parameterNumberName":"U-component_of_WINDS"},"data":[0,0,0,0,0,0,0,0,0,0,0,0,0,0,0,0,0,0,0,0,0,0,0,0,0,0,0,0,0,0,0,0,0,0,0,0,0,0,0,0,0,0,0,0,0,0,0,0,0,0,0,0,0,0,0,0,0,0,2.2555,2.2555,0,2.2558,2.2558,2.2558,2.25,2.2499,2.2497,2.2496,2.2498,2.25,2.2501,0,0,0,0,0,0,0,0,0,0,0,0,0,2.2499,2.25,2.2555,2.2555,2.2555,2.2558,2.2558,2.2558,2.2501,2.2499,2.2497,2.2495,2.2498,2.25,2.2501,0,0,0,0,0,0,0,0,0,0,0,0,0,2.2515,2.2501,2.2555,2.2527,2.2524,2.2558,2.2558,2.2558,2.2501,2.2499,2.2496,2.2494,2.2497,2.2499,2.2502,2.2562,0,0,2.2509,2.2509,0,0,0,0,0,0,0,0,2.2514,2.2517,2.2531,2.2529,2.2526,2.2526,2.2539,2.2559,2.2502,2.251,2.2496,2.2493,2.2509,2.2511,2.2516,2.2562,2.2562,2.2509,2.251,2.2511,2.2512,0,0,0,0,0,0,0,2.2513,2.2516,2.2556,2.2531,2.2528,2.2514,2.2513,2.2543,2.2523,2.2509,2.2505,2.2506,2.2508,2.2514,2.2516,2.2562,2.2509,2.2511,2.2512,2.2513,2.2658,2.266,0,0,0,0,0,0,2.2516,2.2516,2.2556,2.2556,2.2514,2.2517,2.2516,2.2529,2.2522,2.2519,2.2508,2.2503,2.2511,2.2513,2.2516,2.2586,2.2511,2.2513,2.2514,2.2656,2.2659,2.2661,0,0,0,0,0,0,2.2515,2.252,2.2556,2.2535,2.2538,2.252,2.2534,2.253,2.2536,2.2521,2.2517,2.2518,2.251,2.2513,2.2551,2.2585,2.2514,2.2516,2.2653,2.2657,2.266,2.2726,0,0,0,0,0,0,2.2513,2.252,2.2543,2.2536,2.254,2.2591,2.2537,2.2532,2.254,2.2534,2.253,2.2527,2.2508,2.2548,2.2553,2.2587,2.2518,2.2649,2.2654,2.2659,2.2721,2.2732,2.2741,0,0,0,0,0,2.2512,2.2561,2.2544,2.2549,2.2568,2.2593,2.2596,2.2573,2.2543,2.2566,2.2557,2.2527,2.2581,2.2552,2.2558,2.2593,2.2647,2.2653,2.2658,2.2717,2.273,2.2741,0,0,0,0,0,0,2.2572,2.256,2.2541,2.259,2.2593,2.2584,2.2611,2.2588,2.2599,2.2593,2.2564,2.2564,2.2607,2.2604,2.2572,2.2651,2.2609,2.2616,2.2651,2.2664,2.2674,2.2673,2.252,0,0,0,0,0,2.2591,2.2613,2.2601,2.2645,2.2648,2.263,2.264,2.2622,2.2625,2.2626,2.2619,2.2622,2.264,2.2652,2.2667,2.2721,2.2719,2.2748,2.2758,2.2766,2.2772,2.28,2.2812,2.268,2.268,2.268,0,0,2.263,2.2626,2.2642,2.2657,2.2658,2.2681,2.2631,2.2658,2.2675,2.263,2.2665,2.2661,2.2662,2.2709,2.2729,2.2708,2.2809,2.2773,2.278,2.2781,2.2807,2.282,2.2831,2.2684,2.2683,2.2682,0,0,2.2714,2.2713,2.275,2.2752,2.2754,2.2741,2.275,2.2745,2.274,2.2776,2.2742,2.2762,2.2793,2.2795,2.2801,2.2886,2.2859,2.2892,2.2944,2.2972,2.2982,2.2992,2.3021,2.3032,2.2898,2.2899,2.2899,0,2.2762,2.2796,2.2772,2.2801,2.2808,2.2769,2.2806,2.2809,2.2816,2.2822,2.2798,2.2836,2.2834,2.2881,2.2902,2.2908,2.2916,2.2892,2.2983,2.2992,2.3,2.3028,2.3039,2.2902,2.2902,2.2902,2.2901,0,2.2855,2.2879,2.2909,2.2916,2.2927,2.296,2.2941,2.2955,2.2937,2.2927,2.2964,2.2961,2.2975,2.2985,2.2967,2.3029,2.3015,2.2988,2.2945,2.3017,2.3043,2.3053,2.2908,2.2907,2.2906,2.2905,0,0,2.2975,2.297,2.2981,2.2984,2.2984,2.3002,2.3033,2.3047,2.3059,2.3066,2.309,2.3118,2.3093,2.3099,2.3081,2.3106,2.3173,2.3075,2.3074,2.3092,2.324,2.326,2.3273,2.3156,2.3158,2.3159,2.3239,0,2.3056,2.3108,2.3088,2.3142,2.3164,2.3128,2.3155,2.3158,2.315,2.3167,2.3158,2.3177,2.3143,2.3146,2.3169,2.316,2.3202,2.3154,2.3178,2.3179,2.3177,2.3286,2.3307,2.3383,2.3249,2.3251,2.3252,0,2.3156,2.3167,2.3223,2.3219,2.3227,2.3252,2.3263,2.328,2.3283,2.3275,2.3283,2.326,2.329,2.3248,2.3289,2.3257,2.3266,2.3263,2.3266,2.3266,2.3219,2.3288,2.3406,2.3417,2.3268,2.3267,2.3266,0,2.3237,2.3266,2.3303,2.3307,2.3303,2.3321,2.3321,2.3321,2.3331,2.3341,2.3346,2.336,2.3367,2.3378,2.3359,2.3331,2.3403,2.336,2.3397,2.3397,2.3412,2.3411,2.3532,2.342,2.342,2.342,2.342,0,2.3328,2.3364,2.3339,2.3362,2.3401,2.3378,2.3417,2.3412,2.3413,2.3434,2.3404,2.3425,2.3399,2.3418,2.3404,2.3439,2.3443,2.3437,2.3433,2.3439,2.344,2.3443,2.3437,2.3423,2.3422,2.3422,2.3421,0,2.3424,2.3409,2.3447,2.3441,2.3441,2.347,2.3464,2.3485,2.3475,2.3503,2.3508,2.3492,2.3512,2.3495,2.3515,2.3505,2.3552,2.3541,2.3551,2.3547,2.3585,2.3581,2.3711,2.3727,2.3607,2.3608,2.3609,0,2.3482,2.3509,2.3506,2.3518,2.3519,2.354,2.3549,2.3528,2.3539,2.3545,2.3565,2.3582,2.3595,2.3628,2.3619,2.3633,2.3621,2.3666,2.3623,2.3628,2.362,2.3618,2.3621,2.3674,2.3675,2.3677,2.3678,0,2.3587,2.3579,2.3594,2.3608,2.362,2.363,2.3637,2.3649,2.3626,2.3641,2.3661,2.3671,2.3691,2.3708,2.372,2.3719,2.3694,2.3692,2.3701,2.3706,2.3711,2.3708,2.3573,2.3688,2.3687,2.3686,2.3686,2.3685,2.3665,2.3687,2.3689,2.3707,2.371,2.3718,2.3737,2.373,2.3746,2.3761,2.3747,2.3771,2.3773,2.3786,2.3788,2.3807,2.3788,2.3802,2.3805,2.3808,2.3813,2.371,2.3809,2.3809,2.3808,2.3808,2.3808,0,2.3768,2.3767,2.3784,2.3795,2.381,2.3787,2.3793,2.3807,2.3828,2.3833,2.3846,2.3869,2.3886,2.3878,2.3893,2.3909,2.3898,2.3914,2.3911,2.3911,2.3829,2.3819,2.3922,2.3922,2.3922,2.3922,2.3922,2.3922,2.3822,2.3858,2.385,2.3887,2.3886,2.3909,2.3915,2.3922,2.3925,2.3952,2.3966,2.3961,2.396,2.3975,2.399,2.3987,2.3993,2.4012,2.4006,2.3929,2.3917,2.3906,2.3897,2.4014,2.4014,2.4086,2.4086,2.4087]},{"header":{"parameterUnit":"m.s-1","parameterCategory":1,"la1":30.2991,"la2":30.254,"lo1":-89.0895,"lo2":-89.0444,"dy":0.0017,"dx":0.0017,"nx":28,"ny":28,"refTime":"2024-12-11T03:00:00:Z","depth":0,"parameterNumber":3,"parameterNumberName":"V-component_of_WINDS"},"data":[0,0,0,0,0,0,0,0,0,0,0,0,0,0,0,0,0,0,0,0,0,0,0,0,0,0,0,0,0,0,0,0,0,0,0,0,0,0,0,0,0,0,0,0,0,0,0,0,0,0,0,0,0,0,0,0,0,0,-3.4392,-3.4394,0,-3.4584,-3.4586,-3.4588,-3.4561,-3.4557,-3.4554,-3.4551,-3.4749,-3.4757,-3.4765,0,0,0,0,0,0,0,0,0,0,0,0,0,-3.4003,-3.401,-3.4392,-3.4394,-3.4396,-3.4584,-3.4586,-3.4589,-3.4561,-3.4557,-3.4553,-3.455,-3.4746,-3.4756,-3.4766,0,0,0,0,0,0,0,0,0,0,0,0,0,-3.4181,-3.4013,-3.4391,-3.4405,-3.4408,-3.4583,-3.4586,-3.459,-3.4562,-3.4557,-3.4552,-3.4548,-3.4743,-3.4755,-3.4767,-3.4941,0,0,-3.4805,-3.4811,0,0,0,0,0,0,0,0,-3.4171,-3.4196,-3.4401,-3.4405,-3.4408,-3.4543,-3.4522,-3.4707,-3.4563,-3.4504,-3.4551,-3.4546,-3.4685,-3.4702,-3.4748,-3.495,-3.4959,-3.4806,-3.4814,-3.4819,-3.4823,0,0,0,0,0,0,0,-3.4159,-3.4187,-3.4468,-3.4404,-3.4409,-3.4403,-3.4423,-3.4557,-3.4619,-3.4509,-3.4507,-3.453,-3.4686,-3.4736,-3.4753,-3.4961,-3.4806,-3.4817,-3.4825,-3.483,-3.5318,-3.5323,0,0,0,0,0,0,-3.4142,-3.4177,-3.4462,-3.4473,-3.4275,-3.4414,-3.4436,-3.4505,-3.4617,-3.463,-3.4534,-3.4528,-3.4718,-3.4738,-3.476,-3.4972,-3.4819,-3.4831,-3.4838,-3.5312,-3.5319,-3.5325,0,0,0,0,0,0,-3.4134,-3.4168,-3.4454,-3.4325,-3.4361,-3.4425,-3.4503,-3.4511,-3.4562,-3.4637,-3.4648,-3.4574,-3.4715,-3.4742,-3.4897,-3.4978,-3.4836,-3.4848,-3.5306,-3.5315,-3.5322,-3.5397,0,0,0,0,0,0,-3.4123,-3.4165,-3.4231,-3.4327,-3.4368,-3.4587,-3.4508,-3.4519,-3.4583,-3.4577,-3.4677,-3.4689,-3.4713,-3.4878,-3.4909,-3.4993,-3.4857,-3.5299,-3.531,-3.532,-3.5388,-3.5407,-3.5423,0,0,0,0,0,-3.4109,-3.4244,-3.4235,-3.4269,-3.4452,-3.4592,-3.4616,-3.464,-3.459,-3.4657,-3.4706,-3.4686,-3.4964,-3.4894,-3.4929,-3.5018,-3.5294,-3.5307,-3.5319,-3.5379,-3.5403,-3.5423,0,0,0,0,0,0,-3.4157,-3.4257,-3.4247,-3.4417,-3.4496,-3.4587,-3.4673,-3.4663,-3.4759,-3.4749,-3.4775,-3.4798,-3.4955,-3.5001,-3.4922,-3.5193,-3.5122,-3.5142,-3.5157,-3.518,-3.5197,-3.5184,-3.4868,0,0,0,0,0,-3.4187,-3.4292,-3.4374,-3.4516,-3.4556,-3.4608,-3.467,-3.4682,-3.4765,-3.4798,-3.4858,-3.494,-3.5046,-3.5115,-3.5216,-3.5394,-3.5416,-3.5472,-3.549,-3.5504,-3.5522,-3.5621,-3.5648,-3.5366,-3.5366,-3.5366,0,0,-3.425,-3.4318,-3.4383,-3.4527,-3.459,-3.4699,-3.4636,-3.4754,-3.4836,-3.4816,-3.4966,-3.5013,-3.5106,-3.5273,-3.535,-3.5317,-3.5604,-3.552,-3.5531,-3.5541,-3.5637,-3.5663,-3.5687,-3.5374,-3.5373,-3.5372,0,0,-3.4422,-3.4483,-3.4609,-3.4674,-3.4769,-3.4803,-3.4833,-3.4926,-3.4957,-3.5108,-3.5096,-3.5194,-3.5375,-3.5443,-3.5501,-3.5701,-3.5687,-3.5733,-3.5827,-3.5924,-3.5946,-3.5966,-3.6039,-3.6065,-3.575,-3.575,-3.575,0,-3.4489,-3.4653,-3.4675,-3.4795,-3.486,-3.4847,-3.4976,-3.5037,-3.5162,-3.5207,-3.5168,-3.5397,-3.5459,-3.5643,-3.5692,-3.5739,-3.5776,-3.5722,-3.5941,-3.5961,-3.598,-3.605,-3.6078,-3.5755,-3.5754,-3.5754,-3.5753,0,-3.4732,-3.4845,-3.4936,-3.5057,-3.5131,-3.5255,-3.5297,-3.537,-3.5376,-3.5414,-3.5569,-3.5643,-3.576,-3.5805,-3.5811,-3.5991,-3.5968,-3.5935,-3.5865,-3.6012,-3.6078,-3.6105,-3.5762,-3.576,-3.5759,-3.5758,0,0,-3.4939,-3.5071,-3.5104,-3.516,-3.5265,-3.5354,-3.5478,-3.5593,-3.5656,-3.5743,-3.5849,-3.6003,-3.5974,-3.604,-3.6054,-3.6139,-3.6295,-3.6096,-3.6099,-3.6132,-3.6501,-3.6527,-3.6557,-3.6286,-3.6291,-3.6296,-3.6494,0,-3.5122,-3.5341,-3.5366,-3.5561,-3.5668,-3.5658,-3.5766,-3.5843,-3.5883,-3.598,-3.6023,-3.6133,-3.6085,-3.6125,-3.6209,-3.6259,-3.637,-3.6244,-3.6387,-3.6392,-3.6366,-3.6592,-3.6619,-3.6802,-3.652,-3.6524,-3.6527,0,-3.5366,-3.546,-3.5666,-3.5759,-3.5805,-3.5901,-3.601,-3.6102,-3.619,-3.6213,-3.6288,-3.6291,-3.6421,-3.6345,-3.6525,-3.6439,-3.6498,-3.6532,-3.654,-3.6555,-3.647,-3.6616,-3.6861,-3.689,-3.6568,-3.6565,-3.6562,0,-3.5499,-3.5677,-3.5824,-3.5872,-3.5983,-3.6052,-3.6101,-3.6185,-3.6253,-3.6348,-3.6393,-3.6501,-3.6561,-3.6646,-3.6679,-3.662,-3.6858,-3.6784,-3.6883,-3.6882,-3.6934,-3.6931,-3.7195,-3.697,-3.6969,-3.6969,-3.6968,0,-3.5703,-3.583,-3.5886,-3.5977,-3.612,-3.6147,-3.6288,-3.6334,-3.6409,-3.6509,-3.6507,-3.6602,-3.6639,-3.674,-3.6767,-3.6914,-3.694,-3.6963,-3.6969,-3.6965,-3.6962,-3.7006,-3.6995,-3.6976,-3.6974,-3.6973,-3.6972,0,-3.5876,-3.5919,-3.6079,-3.6171,-3.6198,-3.6299,-3.6379,-3.6467,-3.6505,-3.6633,-3.6665,-3.6725,-3.6844,-3.6886,-3.703,-3.7048,-3.7219,-3.7213,-3.719,-3.7192,-3.7288,-3.728,-3.7591,-3.7635,-3.7378,-3.7381,-3.7382,0,-3.6004,-3.6102,-3.6206,-3.6273,-3.6325,-3.6433,-3.6503,-3.6534,-3.6607,-3.6716,-3.6792,-3.691,-3.7007,-3.7198,-3.7255,-3.7366,-3.7365,-3.7466,-3.7381,-3.7375,-3.7369,-3.7364,-3.7375,-3.7482,-3.7485,-3.7487,-3.7489,0,-3.6228,-3.6245,-3.6345,-3.6454,-3.6538,-3.6625,-3.6709,-3.6765,-3.6808,-3.6891,-3.7013,-3.7088,-3.7236,-3.7354,-3.7468,-3.752,-3.7514,-3.7515,-3.7544,-3.7542,-3.7525,-3.7538,-3.7235,-3.7508,-3.7506,-3.7505,-3.7504,-3.7503,-3.6385,-3.6472,-3.6559,-3.6672,-3.6739,-3.6818,-3.6907,-3.6956,-3.7058,-3.7182,-3.7193,-3.7326,-3.7413,-3.7565,-3.7623,-3.7728,-3.77,-3.7741,-3.7752,-3.7762,-3.7771,-3.7507,-3.7748,-3.7748,-3.7747,-3.7747,-3.7746,0,-3.6611,-3.6666,-3.677,-3.6888,-3.6978,-3.6962,-3.7055,-3.7132,-3.7248,-3.733,-3.7425,-3.7566,-3.7682,-3.7749,-3.7864,-3.7936,-3.7936,-3.7965,-3.7961,-3.7974,-3.7788,-3.7753,-3.7964,-3.7964,-3.7964,-3.7963,-3.7963,-3.7963,-3.6739,-3.6887,-3.6914,-3.7095,-3.715,-3.728,-3.7335,-3.7409,-3.7474,-3.7633,-3.7728,-3.7771,-3.7848,-3.797,-3.8075,-3.8092,-3.8136,-3.8169,-3.8184,-3.8009,-3.7987,-3.7966,-3.7933,-3.8178,-3.8178,-3.8361,-3.8363,-3.8364]}]]